FW5442 Weather Reports


Display with metric or nautical units.
time (UTC)temp
F
wind
direction
speed
MPH
gust
MPH
rain 1hr
in
rain 24hr
in
rain mn
in
humidity
%
barometer
mb
20260507164056 65 15 1.0 12.0 0.00 0.34 0.00 62 1016.9
20260507163553 64 0 2.0 14.0 0.00 0.34 0.00 58 1016.9
20260507163053 64 20 3.0 14.0 0.00 0.34 0.00 59 1016.9
20260507162556 64 11 0.0 19.0 0.00 0.34 0.00 62 1016.9
20260507162055 64 348 2.0 19.0 0.00 0.34 0.00 62 1016.8
20260507161603 64 358 2.0 19.0 0.00 0.34 0.00 61 1017.0
20260507161057 63 0 6.0 16.0 0.00 0.34 0.00 63 1017.1
20260507160556 63 0 2.0 16.0 0.00 0.34 0.00 63 1017.3
20260507160059 63 335 1.0 12.0 0.00 0.34 0.00 65 1017.1
20260507155555 63 0 2.0 15.0 0.00 0.34 0.00 64 1017.2
20260507155056 63 0 4.0 15.0 0.00 0.34 0.00 64 1017.2
20260507154557 63 342 8.0 15.0 0.00 0.34 0.00 65 1017.3
20260507154055 62 13 3.0 15.0 0.00 0.34 0.00 66 1017.1
20260507153552 62 311 9.0 15.0 0.00 0.34 0.00 64 1017.2
20260507153052 62 316 8.0 17.0 0.00 0.34 0.00 64 1017.2
20260507152555 62 27 9.0 17.0 0.00 0.34 0.00 67 1017.2
20260507152052 62 25 6.0 12.0 0.00 0.34 0.00 66 1017.2
20260507151552 62 30 8.0 17.0 0.00 0.34 0.00 67 1017.2
20260507151056 62 13 5.0 17.0 0.00 0.34 0.00 66 1017.1
20260507150555 62 58 5.0 17.0 0.00 0.34 0.00 65 1017.1
20260507145556 61 118 7.0 18.0 0.00 0.34 0.00 68 1017.4
20260507145055 61 55 8.0 18.0 0.00 0.34 0.00 67 1017.4
20260507144553 61 55 8.0 15.0 0.00 0.34 0.00 68 1017.4
20260507144056 61 0 2.0 15.0 0.00 0.34 0.00 71 1017.3
20260507143559 60 20 6.0 15.0 0.00 0.34 0.00 71 1017.2
20260507143104 60 46 6.0 15.0 0.00 0.34 0.00 71 1017.2
20260507142555 60 17 6.0 17.0 0.00 0.34 0.00 70 1017.1
20260507142055 60 39 6.0 17.0 0.00 0.34 0.00 72 1017.1
20260507141557 60 6 2.0 11.0 0.00 0.34 0.00 74 1017.3
20260507141053 59 10 4.0 15.0 0.00 0.34 0.00 73 1017.3
20260507140552 59 353 5.0 15.0 0.00 0.34 0.00 76 1017.4
20260507140058 59 356 7.0 16.0 0.00 0.34 0.00 76 1017.2
20260507135556 58 333 8.0 16.0 0.00 0.35 0.00 76 1017.2
20260507135056 58 349 7.0 14.0 0.00 0.35 0.00 79 1017.3
20260507134557 57 359 6.0 14.0 0.00 0.35 0.00 78 1017.0
20260507134055 57 350 5.0 12.0 0.00 0.35 0.00 81 1017.0
20260507133555 57 8 7.0 13.0 0.00 0.35 0.00 81 1016.9
20260507133058 57 322 7.0 14.0 0.00 0.35 0.00 81 1016.9
20260507132556 57 17 7.0 14.0 0.00 0.35 0.00 82 1016.9
20260507132055 56 11 7.0 14.0 0.00 0.35 0.00 82 1016.9
20260507131612 56 15 4.0 12.0 0.00 0.35 0.00 84 1016.8
20260507131057 56 15 5.0 12.0 0.00 0.35 0.00 84 1016.7
20260507130552 55 13 8.0 12.0 0.00 0.35 0.00 84 1016.8
20260507130057 55 18 7.0 13.0 0.00 0.35 0.00 84 1016.7
20260507125553 55 5 8.0 13.0 0.00 0.35 0.00 84 1016.6
20260507125055 54 348 8.0 13.0 0.00 0.35 0.00 83 1016.5
20260507124556 54 15 6.0 11.0 0.00 0.35 0.00 82 1016.4
20260507124056 54 13 7.0 10.0 0.00 0.35 0.00 81 1016.3
20260507123556 54 338 6.0 11.0 0.00 0.35 0.00 79 1016.3
20260507123106 53 307 6.0 11.0 0.00 0.35 0.00 78 1016.3
20260507122555 53 347 7.0 11.0 0.00 0.35 0.00 78 1016.1
20260507122055 53 336 6.0 11.0 0.00 0.35 0.00 77 1016.2
20260507121605 53 318 8.0 11.0 0.00 0.35 0.00 77 1016.1
20260507121056 53 335 5.0 8.0 0.00 0.35 0.00 76 1016.0
20260507120555 53 10 4.0 8.0 0.00 0.35 0.00 76 1015.9
20260507120056 53 338 6.0 10.0 0.00 0.35 0.00 75 1015.8
20260507115555 53 1 6.0 10.0 0.00 0.36 0.00 74 1015.7
20260507115055 53 30 4.0 8.0 0.00 0.36 0.00 73 1015.9
20260507114601 52 8 4.0 7.0 0.00 0.36 0.00 73 1015.7
20260507114056 52 344 4.0 9.0 0.00 0.36 0.00 73 1015.7
20260507113555 53 335 5.0 9.0 0.00 0.36 0.00 74 1015.8
20260507113100 53 338 5.0 12.0 0.00 0.36 0.00 74 1015.7
20260507112556 53 337 7.0 12.0 0.00 0.36 0.00 74 1015.8
20260507112056 53 338 6.0 11.0 0.00 0.36 0.00 75 1015.7
20260507111555 53 344 8.0 12.0 0.00 0.36 0.00 74 1015.5
20260507111058 53 333 7.0 12.0 0.00 0.36 0.00 74 1015.3
20260507110555 53 10 7.0 13.0 0.00 0.36 0.00 74 1015.3
20260507110108 53 336 7.0 14.0 0.00 0.36 0.00 75 1015.2
20260507105558 53 335 9.0 14.0 0.00 0.36 0.00 75 1015.2
20260507105056 53 334 8.0 13.0 0.00 0.36 0.00 74 1015.0
20260507104614 53 11 8.0 12.0 0.00 0.36 0.00 73 1014.9
20260507104052 53 330 7.0 11.0 0.00 0.36 0.00 72 1014.8
20260507103556 53 327 7.0 10.0 0.00 0.36 0.00 71 1014.7
20260507103057 53 335 5.0 9.0 0.00 0.36 0.00 70 1014.5
20260507102556 53 316 7.0 9.0 0.00 0.36 0.00 70 1014.6
20260507102056 53 345 5.0 9.0 0.00 0.36 0.00 70 1014.4
20260507101558 53 332 6.0 10.0 0.00 0.36 0.00 70 1014.5
20260507101055 53 337 7.0 10.0 0.00 0.36 0.00 69 1014.5
20260507100555 53 338 5.0 11.0 0.00 0.36 0.00 69 1014.6
20260507100054 53 351 6.0 11.0 0.00 0.36 0.00 69 1014.5
20260507095555 53 313 6.0 9.0 0.00 0.36 0.00 69 1014.7
20260507095055 53 345 6.0 8.0 0.00 0.36 0.00 68 1014.6
20260507094608 54 352 5.0 8.0 0.00 0.36 0.00 67 1014.5
20260507094055 54 331 4.0 8.0 0.00 0.36 0.00 66 1014.4
20260507093556 54 331 4.0 8.0 0.00 0.36 0.00 66 1014.3
20260507093059 54 331 4.0 8.0 0.00 0.36 0.00 65 1014.3
20260507092555 54 333 5.0 10.0 0.00 0.36 0.00 65 1014.3
20260507092056 54 323 4.0 11.0 0.00 0.36 0.00 64 1014.3
20260507091635 54 6 7.0 11.0 0.00 0.36 0.00 63 1014.3
20260507091056 54 333 6.0 9.0 0.00 0.36 0.00 61 1014.4
20260507090556 54 337 6.0 9.0 0.00 0.36 0.00 60 1014.2
20260507090106 54 333 5.0 10.0 0.00 0.36 0.00 59 1014.3
20260507085555 54 347 5.0 12.0 0.00 0.36 0.00 60 1014.1
20260507085056 54 340 7.0 12.0 0.00 0.36 0.00 59 1014.3
20260507084557 54 318 6.0 11.0 0.00 0.36 0.00 58 1014.4
20260507084056 54 333 0.0 11.0 0.00 0.36 0.00 56 1014.3
20260507083555 54 333 8.0 11.0 0.00 0.36 0.00 55 1014.1
20260507083053 54 351 7.0 11.0 0.00 0.36 0.00 53 1014.1
20260507082555 54 324 6.0 10.0 0.00 0.36 0.00 51 1014.2
20260507082056 54 339 5.0 9.0 0.00 0.36 0.00 48 1014.1
20260507081556 54 353 1.0 11.0 0.00 0.36 0.00 45 1014.1
20260507081055 54 341 5.0 11.0 0.00 0.36 0.00 43 1014.1
20260507080555 54 349 6.0 11.0 0.00 0.36 0.00 42 1014.1
20260507080053 54 18 5.0 10.0 0.00 0.36 0.00 42 1014.1
20260507075555 54 360 6.0 11.0 0.00 0.36 0.00 41 1014.2
20260507075052 54 13 6.0 13.0 0.00 0.36 0.00 42 1014.3
20260507074559 53 360 8.0 13.0 0.00 0.36 0.00 42 1014.4
20260507074055 53 333 6.0 11.0 0.00 0.36 0.00 42 1014.6
20260507073558 53 10 6.0 11.0 0.00 0.36 0.00 42 1014.6
20260507073100 53 328 8.0 11.0 0.00 0.36 0.00 42 1015.0
20260507072556 53 332 6.0 9.0 0.00 0.36 0.00 42 1015.0
20260507072058 53 334 3.0 10.0 0.00 0.36 0.00 42 1014.9
20260507071602 53 355 6.0 11.0 0.00 0.36 0.00 42 1014.9
20260507071055 53 348 6.0 11.0 0.00 0.36 0.00 42 1014.9
20260507070555 53 332 6.0 9.0 0.00 0.36 0.00 42 1014.6
20260507070109 53 17 4.0 11.0 0.00 0.36 0.00 42 1014.5
20260507065555 53 12 6.0 11.0 0.00 0.36 0.00 42 1014.9
20260507065055 53 120 6.0 14.0 0.00 0.36 0.00 42 1014.4
20260507064601 53 11 7.0 14.0 0.00 0.36 0.00 42 1014.0
20260507064055 53 11 8.0 14.0 0.00 0.36 0.00 43 1014.2
20260507063553 53 16 8.0 11.0 0.00 0.36 0.00 43 1013.9
20260507063102 53 9 7.0 12.0 0.00 0.36 0.00 43 1014.3
20260507062554 53 12 5.0 12.0 0.00 0.36 0.00 43 1014.6
20260507062057 53 1 7.0 12.0 0.00 0.36 0.00 43 1014.2
20260507061559 53 314 6.0 10.0 0.00 0.36 0.00 43 1014.3
20260507061057 53 4 5.0 10.0 0.00 0.36 0.00 43 1014.7
20260507060555 53 8 6.0 10.0 0.00 0.36 0.00 43 1014.6
20260507060112 53 293 6.0 10.0 0.00 0.36 0.00 43 1014.5
20260507055556 53 27 5.0 9.0 0.00 0.36 0.00 43 1014.6
20260507055055 53 19 3.0 10.0 0.00 0.36 0.00 44 1014.4
20260507054055 53 25 5.0 9.0 0.00 0.36 0.00 44 1014.5
20260507053555 53 342 2.0 7.0 0.00 0.36 0.00 44 1014.7
20260507053100 53 0 0.0 8.0 0.00 0.36 0.00 45 1014.6
20260507052555 53 38 1.0 8.0 0.01 0.36 0.00 45 1014.5
20260507052055 53 0 4.0 10.0 0.06 0.36 0.00 45 1014.1
20260507051559 53 44 2.0 10.0 0.29 0.36 0.00 46 1014.4
20260507051054 53 349 6.0 12.0 0.32 0.36 0.00 46 1014.4
20260507050555 53 19 6.0 12.0 0.32 0.36 0.00 47 1014.4
20260507050100 53 342 7.0 12.0 0.32 0.36 0.00 47 1014.6
20260507045556 53 7 4.0 12.0 0.32 0.36 0.36 48 1014.1
20260507045056 53 341 6.0 12.0 0.32 0.36 0.36 48 1013.8
20260507044605 53 21 6.0 11.0 0.32 0.36 0.36 49 1013.8
20260507044055 53 11 5.0 11.0 0.32 0.36 0.36 51 1014.2
20260507043555 53 14 5.0 9.0 0.32 0.36 0.36 52 1014.3
20260507043101 53 0 1.0 13.0 0.32 0.36 0.36 54 1014.2
20260507042553 53 6 4.0 17.0 0.31 0.35 0.35 58 1014.1
20260507042058 54 19 8.0 17.0 0.26 0.30 0.30 66 1013.9
20260507041558 54 339 11.0 15.0 0.03 0.07 0.07 76 1014.4
20260507041057 54 329 9.0 15.0 0.00 0.04 0.04 78 1014.9
20260507040555 54 339 9.0 15.0 0.00 0.04 0.04 79 1014.3
20260507040056 54 34 9.0 15.0 0.00 0.04 0.04 79 1013.8
20260507035555 54 14 8.0 15.0 0.00 0.04 0.04 80 1013.4
20260507035055 54 32 6.0 18.0 0.00 0.04 0.04 80 1013.7
20260507034600 55 15 7.0 18.0 0.00 0.04 0.04 80 1013.5
20260507034055 55 357 4.0 16.0 0.00 0.04 0.04 79 1014.2
20260507033556 55 27 7.0 16.0 0.00 0.04 0.04 79 1013.5
20260507033056 55 340 7.0 14.0 0.00 0.04 0.04 79 1014.1
20260507032555 55 23 9.0 13.0 0.00 0.04 0.04 79 1014.3
20260507032055 55 340 9.0 17.0 0.00 0.04 0.04 79 1014.3
20260507031600 55 2 9.0 17.0 0.00 0.04 0.04 79 1014.3
20260507031055 54 333 9.0 18.0 0.00 0.04 0.04 79 1014.0
20260507030555 54 354 9.0 18.0 0.00 0.04 0.04 79 1014.3
20260507030057 54 354 10.0 17.0 0.00 0.04 0.04 79 1014.3
20260507025555 54 358 8.0 14.0 0.00 0.04 0.04 79 1014.1
20260507025055 54 19 7.0 15.0 0.00 0.04 0.04 79 1014.3
20260507024602 54 0 6.0 15.0 0.00 0.04 0.04 79 1014.3
20260507024055 54 6 7.0 14.0 0.00 0.04 0.04 79 1013.9
20260507023555 54 289 7.0 14.0 0.00 0.04 0.04 79 1014.0
20260507023058 54 39 8.0 14.0 0.00 0.04 0.04 80 1013.9
20260507022555 54 13 8.0 15.0 0.00 0.04 0.04 80 1014.2
20260507022052 54 342 8.0 15.0 0.00 0.04 0.04 79 1014.1
20260507021601 54 30 7.0 14.0 0.00 0.04 0.04 79 1014.1
20260507021052 54 314 7.0 14.0 0.00 0.04 0.04 79 1013.9
20260507020556 54 337 8.0 14.0 0.00 0.04 0.04 79 1013.9
20260507020101 54 0 4.0 14.0 0.00 0.04 0.04 79 1013.6
20260507015555 54 0 4.0 16.0 0.00 0.04 0.04 80 1013.0
20260507015052 54 37 7.0 18.0 0.00 0.04 0.04 80 1013.0
20260507014553 54 23 9.0 18.0 0.00 0.04 0.04 80 1012.9
20260507014052 54 356 10.0 15.0 0.00 0.04 0.04 80 1012.9
20260507013557 54 327 10.0 16.0 0.00 0.04 0.04 79 1012.8
20260507013058 54 4 7.0 18.0 0.00 0.04 0.04 79 1012.7
20260507012556 55 356 10.0 21.0 0.00 0.04 0.04 79 1012.7
20260507012055 55 11 11.0 21.0 0.00 0.04 0.04 80 1012.6
20260507011558 55 343 10.0 18.0 0.00 0.04 0.04 80 1012.9
20260507011055 55 359 11.0 18.0 0.00 0.04 0.04 80 1012.7
20260507010555 55 5 9.0 18.0 0.00 0.04 0.04 80 1012.9
20260507010110 55 10 10.0 16.0 0.00 0.04 0.04 80 1012.9
20260507005556 55 346 9.0 15.0 0.00 0.04 0.04 81 1013.2
20260507005055 55 314 7.0 12.0 0.00 0.04 0.04 80 1013.4
20260507004554 55 323 5.0 14.0 0.00 0.04 0.04 80 1013.0
20260507004055 55 26 7.0 16.0 0.00 0.04 0.04 80 1012.9
20260507003555 55 321 10.0 18.0 0.00 0.04 0.04 81 1012.9
20260507003056 55 5 11.0 18.0 0.00 0.04 0.04 82 1012.4
20260507002554 55 350 9.0 19.0 0.00 0.04 0.04 81 1012.4
20260507002055 55 27 8.0 19.0 0.00 0.04 0.04 81 1012.4
20260507001559 55 316 10.0 19.0 0.00 0.04 0.04 82 1012.4
20260507001054 55 23 9.0 15.0 0.00 0.04 0.04 81 1012.2
20260507000557 56 3 9.0 17.0 0.00 0.04 0.04 81 1012.5
20260507000101 56 23 7.0 18.0 0.00 0.04 0.04 81 1012.7
20260506235556 56 356 7.0 18.0 0.00 0.04 0.04 81 1012.8
20260506235058 56 21 10.0 18.0 0.00 0.04 0.04 82 1012.8
20260506234602 56 326 9.0 17.0 0.00 0.04 0.04 82 1013.1
20260506234055 56 18 8.0 17.0 0.00 0.04 0.04 82 1012.8
20260506233552 56 21 10.0 17.0 0.00 0.04 0.04 82 1012.9
20260506233105 56 9 9.0 15.0 0.00 0.04 0.04 82 1012.9
20260506232554 56 340 8.0 14.0 0.00 0.04 0.04 81 1012.8
20260506232054 56 359 6.0 14.0 0.00 0.04 0.04 82 1012.8
20260506231558 56 6 7.0 14.0 0.00 0.04 0.04 82 1012.7
20260506231055 56 11 4.0 13.0 0.00 0.04 0.04 83 1012.8
20260506230556 57 8 3.0 14.0 0.00 0.04 0.04 82 1012.9
20260506230059 56 15 9.0 14.0 0.00 0.04 0.04 82 1012.5
20260506225558 57 351 9.0 13.0 0.00 0.04 0.04 82 1012.4
20260506225059 57 352 7.0 13.0 0.00 0.04 0.04 82 1012.3
20260506224600 57 0 6.0 12.0 0.00 0.04 0.04 83 1012.3
20260506224054 57 6 6.0 12.0 0.00 0.04 0.04 83 1012.5
20260506223555 57 23 3.0 9.0 0.00 0.04 0.04 82 1012.5
20260506223101 57 21 4.0 9.0 0.00 0.04 0.04 82 1012.4
20260506222555 56 4 0.0 10.0 0.00 0.04 0.04 82 1012.3
20260506222055 56 0 1.0 10.0 0.00 0.04 0.04 83 1012.6
20260506221608 56 339 4.0 10.0 0.00 0.04 0.04 83 1012.4
20260506221055 56 0 0.0 6.0 0.00 0.04 0.04 81 1012.4
20260506220557 56 27 2.0 11.0 0.00 0.04 0.04 82 1012.3
20260506220057 56 22 1.0 11.0 0.00 0.04 0.04 81 1012.3
20260506215555 56 32 4.0 11.0 0.00 0.04 0.04 82 1012.4
20260506215056 56 39 0.0 11.0 0.00 0.04 0.04 80 1012.4
20260506214601 56 51 4.0 11.0 0.00 0.04 0.04 81 1012.4
20260506214052 56 321 1.0 10.0 0.00 0.04 0.04 81 1012.1
20260506213554 56 0 3.0 15.0 0.00 0.04 0.04 80 1012.1
20260506213057 55 31 3.0 15.0 0.00 0.04 0.04 80 1011.7
20260506212555 55 356 5.0 12.0 0.00 0.04 0.04 80 1011.6
20260506212056 55 23 3.0 12.0 0.00 0.04 0.04 77 1011.5
20260506211559 55 0 6.0 12.0 0.00 0.04 0.04 78 1011.8
20260506211055 55 0 6.0 12.0 0.00 0.04 0.04 76 1012.1
20260506210554 55 345 4.0 10.0 0.00 0.04 0.04 76 1012.4
20260506210057 54 0 3.0 10.0 0.00 0.04 0.04 75 1012.7
20260506205551 54 300 4.0 10.0 0.00 0.04 0.04 76 1012.6
20260506205055 54 316 0.0 10.0 0.00 0.04 0.04 74 1012.0
20260506204613 54 2 1.0 15.0 0.01 0.04 0.04 74 1012.0
20260506204055 54 14 6.0 21.0 0.01 0.04 0.04 75 1012.0
20260506203554 54 0 4.0 21.0 0.01 0.04 0.04 75 1011.9
20260506203056 54 6 9.0 20.0 0.02 0.04 0.04 73 1013.1
20260506202556 54 28 9.0 20.0 0.02 0.04 0.04 71 1013.4
20260506202055 54 7 13.0 24.0 0.02 0.04 0.04 70 1013.5
20260506201600 54 322 11.0 24.0 0.02 0.04 0.04 69 1013.5
20260506201057 54 26 14.0 24.0 0.02 0.04 0.04 68 1013.7
20260506200552 54 26 14.0 22.0 0.02 0.04 0.04 65 1013.7
20260506200053 54 323 14.0 22.0 0.02 0.04 0.04 66 1013.9
20260506195558 54 340 13.0 20.0 0.02 0.04 0.04 66 1014.0
20260506195052 54 328 9.0 25.0 0.02 0.04 0.04 65 1014.1
20260506194555 54 333 13.0 25.0 0.01 0.03 0.03 67 1014.0
20260506194054 54 340 16.0 25.0 0.01 0.03 0.03 70 1014.0
20260506193554 54 340 15.0 22.0 0.01 0.03 0.03 73 1014.0
20260506193055 54 337 13.0 21.0 0.00 0.02 0.02 74 1014.2
20260506192558 54 322 12.0 21.0 0.00 0.02 0.02 74 1014.0
20260506192056 54 316 9.0 15.0 0.00 0.02 0.02 72 1013.8
20260506191553 54 340 11.0 14.0 0.00 0.02 0.02 73 1013.9
20260506191052 54 316 8.0 14.0 0.00 0.02 0.02 73 1014.0
20260506190555 55 352 8.0 14.0 0.00 0.02 0.02 77 1013.9
20260506190054 55 313 8.0 16.0 0.00 0.02 0.02 79 1013.7
20260506185555 55 15 10.0 16.0 0.00 0.02 0.02 80 1013.8
20260506185055 55 7 10.0 16.0 0.00 0.02 0.02 80 1013.9
20260506184557 55 334 7.0 14.0 0.00 0.02 0.02 81 1013.9
20260506184052 55 323 7.0 14.0 0.00 0.02 0.02 81 1013.9
20260506183555 55 352 7.0 13.0 0.00 0.02 0.02 80 1013.7
20260506183055 55 356 3.0 14.0 0.00 0.02 0.02 77 1013.8
20260506182555 55 4 6.0 16.0 0.00 0.02 0.02 80 1013.8
20260506182054 55 1 11.0 16.0 0.00 0.02 0.02 80 1013.9
20260506181553 55 19 9.0 15.0 0.00 0.02 0.02 79 1014.0
20260506181052 55 328 9.0 16.0 0.00 0.02 0.02 78 1013.9
20260506180555 55 37 7.0 16.0 0.00 0.02 0.02 76 1013.9
20260506175554 55 6 9.0 18.0 0.00 0.02 0.02 72 1013.6
20260506175054 55 23 8.0 17.0 0.00 0.02 0.02 68 1013.5
20260506174559 55 24 7.0 17.0 0.00 0.02 0.02 65 1013.3
20260506174058 54 13 11.0 17.0 0.00 0.02 0.02 63 1013.4
20260506173552 55 342 5.0 16.0 0.00 0.02 0.02 62 1013.5
20260506173126 55 335 9.0 17.0 0.00 0.02 0.02 64 1013.6
20260506172551 55 1 11.0 17.0 0.00 0.02 0.02 68 1013.6
20260506172053 55 3 10.0 16.0 0.00 0.02 0.02 66 1013.6
20260506171555 55 8 10.0 15.0 0.00 0.02 0.02 64 1013.6
20260506171055 55 345 10.0 14.0 0.00 0.02 0.02 62 1013.7
20260506170555 55 34 7.0 15.0 0.00 0.02 0.02 61 1013.9
20260506170055 55 342 11.0 15.0 0.00 0.02 0.02 63 1013.8
20260506165554 55 333 10.0 15.0 0.00 0.02 0.02 63 1013.8
20260506165055 55 345 10.0 14.0 0.00 0.02 0.02 65 1014.1
20260506164553 55 319 8.0 17.0 0.00 0.02 0.02 63 1014.1